Weather in Ramzay

Russia / Penza Oblast     53°18′04″N   44°43′52″E
temp.,
°C
wind,
m/s
gust,
m/s
humid.,
%
clouds,
%
prec.,
mm/h
press.,
hPa
HPBL,
m
3 march, wed
wed300:00−2wnw499499 0.0 1005279
03:00−6wnw479681 0.1 1006146
06:00−5nw5109584 0.2 1006295
09:00−3nnw6108990 0.6 1008763
12:00−4nw698998 0.1 1010755
15:00−4nw7108799 0.1 1011771
18:00−5nw61189100 0.1 1012735
21:00−6wnw5119199 0.1 1013383
4 march, thu
thu400:00−8wsw5109692 0.0 1011205
03:00−5wsw7139394 0.1 1010450
06:00−3wsw71393100 0.1 1007849
09:00−3wsw91591100 0.3 1005723
12:000wsw101688100 0.1 10031016
15:000w91591100 0.1 10031101
18:00−1w71396100 0.4 1003731
21:00−1wsw51196100 0.9 1003529
5 march, fri
fri500:00−1sw51196100 0.4 1002550
03:00−1sw61194100 0.6 1000546
06:000wsw51098100 0.7 1000538
09:00−3n5896100 1.9 1001369
12:00−2nnw468999 0.1 1004633
15:00−2nnw468896 0.2 1008706
18:00−7wnw229486 0.1 101025
21:00−9w239176 0.1 101321
6 march, sat
sat600:00−10wsw339563 0.0 101327
03:00−10wsw339481 0.0 101447
06:00−11wnw3395100 0.0 101343
09:00−10nw4794100 0.0 1013227
12:00−8nw469299 0.0 1013337
15:00−7nw468864 0.0 1014614
18:00−11wnw349345 0.0 101441
21:00−12wnw379640 0.0 1015155
7 march, sun
sun700:00−15nw339690 0.0 101633
03:00−17wnw339357 0.0 101622
06:00−18wsw34910 0.0 101636
09:00−14sw510890 0.0 1014277
12:00−9sw8148370 0.0 1011651
15:00−7sw10178585 0.0 10071097
18:00−6sw111991100 0.2 10031214
21:00−4sw111793100 1.2 9991083